SL-16 DEB, 22444

Orbit data source: Space-Track

SL-16 DEB, 22444 is space debris in LEO originally from a launch on Fri, 25 Dec 1992 UTC launched from the Tyuratam Missile And Space Complex (TTMTR). Debris objects in space refer to the collection of defunct objects orbiting the Earth. Examples of debris include non-operational satellites, rocket bodies, and fragments generated from explosions, collisions, or faulty payload assembly.

Loading next visibility...
Identifier
22444, 1992-093EM
Orbit
LEO
Country
Flag of CISCIS
Related business
Manufacturer
Unknown
Mission
Spacecraft
Bus & Motor
Unknown
Mass
Unknown
Launch date (UTC)
1992-12-25 (33 years ago)
Launch vehicle
Unknown
Launch site
Tyuratam Missile And Space Complex (TTMTR)
Object type
Payload
Rocket body
Debris
Shape & HBR
Unknown shape, 0.1 m
Radar Cross Section
Small (<0.1 m²)

Expand to show TLE details & history
Last TLE update: 11 hours ago

TLE from 11 hours ago
0 SL-16 DEB
1 22444U 92093EM  25296.55270013  .00000590  00000-0  36219-3 0  9994
2 22444  71.3228  32.8742 0080468 261.4575 118.6245 14.08046852679077
Epoch: 2025-10-23T13:15Z
TLE epoch observation values (Epoch: 2025-10-23T13:15:53.291Z)
Latitude
19.75105°
Longitude
168.62657°
Altitude
896.334 km
Speed
7.391 km/s
True Right ascension
02h 39m 14s
True Declination
19° 38' 38"
Sunlit
Object was in full shadow at epoch
Visualization orbit readout
Latitude
Unknown
Longitude
Unknown
Altitude
Unknown
Speed
Unknown
Apparent Right ascension
Unknown
Apparent Declination
Unknown
Sunlit
N/A
Visualization observer readout
Local Sidereal Time
19:32:42
Azimuth
Unknown
Elevation
Unknown
Doppler factor
Unknown
Orbital elements
Apogee altitude
922.239 km
Perigee altitude
805.687 km
Semi-major axis
7,242.1 km
Eccentricity
0.00805
Inclination
71.3228°
RAAN
32.8742°
Arg. of periapsis
261.4575°
True anomaly
119.42999°
Mean anomaly
118.6245°
Eccentric anomaly
119.02763°
Mean motion
3.52165 °/min
Orbital period
102.22 mins
BSTAR
0.00036219
Loading maneuver chart data...
Computing Atmospheric mass density...
Loading historical data...
Loading historical data...
Loading historical data...
Loading historical data...
Loading historical data...
Loading historical data...
Loading historical data...

Documentation

Showing up to 5 results
|